Simultaneous Nadir Overpasses (SNOs) Predictions

Prediction of SNOs between LANDSAT-8 and METOP-B Satellite Orbit:

Table of predicted SNOs for the next 14.0 days since TLE Epoch: 2/28/2016
Index Date (LANDSAT-8) Time (LANDSAT-8) Lat,Lon (LANDSAT-8) SZA (LANDSAT-8 ) Date (METOP-B) Time (METOP-B) Lat,Lon (METOP-B) SZA (METOP-B ) Distance(km) Time Diff (sec)
1 02/29/2016 22:33:35 -81.19, 62.32 89.52 02/29/2016 22:32:42 -81.20, 62.35 89.53 0.59 53
2 02/29/2016 23:23:00 81.22,-129.59 90.54 02/29/2016 23:23:21 81.22,-129.60 90.55 0.37 21
3 03/03/2016 18:07:50 -81.19, 128.77 90.57 03/03/2016 18:07:02 -81.20, 128.79 90.59 0.39 48
4 03/03/2016 18:57:15 81.22, -63.16 89.48 03/03/2016 18:57:41 81.22, -63.18 89.49 0.52 26
5 03/06/2016 13:42:05 -81.19,-164.83 91.65 03/06/2016 13:41:22 -81.20,-164.80 91.66 0.69 43
6 03/06/2016 14:31:30 81.22, 3.22 88.40 03/06/2016 14:32:01 81.22, 3.20 88.41 0.36 31
7 03/09/2016 09:16:18 -81.21, -98.11 92.69 03/09/2016 09:15:40 -81.21, -98.03 92.69 1.26 38
8 03/09/2016 10:05:44 81.21, 69.55 87.31 03/09/2016 10:06:20 81.22, 69.56 87.33 0.60 36
9 03/12/2016 04:50:33 -81.20, -31.80 93.79 03/12/2016 04:50:00 -81.21, -31.67 93.78 2.33 33




NCC Satellite Simultaneous Nadir Overpasses (SNOs) Prediction Service
